Weather History for Custer, SD

Change the Weather History Date:

Saturday, January 5, 2013

  Actual Average Record
Temperature  
Mean Temperature 26 °F 24 °F  
Max Temperature 34 °F 35 °F 58 °F (2012)
Min Temperature 17 °F 13 °F -22 °F (1970)
Degree Days  
Heating Degree Days 39 41  
Month to date heating degree days 218 205  
Since 1 July heating degree days 3363 3675  
Cooling Degree Days 0 0  
Month to date cooling degree days 0 0  
Year to date cooling degree days 0 0  
Moisture  
Dew Point 12 °F    
Average Humidity 53    
Maximum Humidity 68    
Minimum Humidity 38    
Precipitation  
Precipitation 0.00 in 0.01 in 1.00 in (1949)
Month to date precipitation 0.01 0.05  
Year to date precipitation 0.01 0.05  
Sea Level Pressure  
Sea Level Pressure 30.18 in    
Wind  
Wind Speed 8 mph (WNW)    
Max Wind Speed 17 mph    
Max Gust Speed 28 mph    
Visibility 10 miles    
Events      
T = Trace of Precipitation, MM = Missing Value Source: NWS Daily Summary

Daily Weather History Graph

Daily Weather History Graph

Search for Another Location

Airport:

Trip Planner

Search our weather history database for the weather conditions in past years. The results will help you decide how hot, cold, wet, or windy it might be!

Date:

Astronomy

Jan. 05, 2013 Rise Set
Actual Time 7:28 AM MST 4:32 PM MST
Civil Twilight 6:55 AM MST 5:04 PM MST
Nautical Twilight 6:19 AM MST 5:40 PM MST
Astronomical Twilight 5:44 AM MST 6:15 PM MST
Moon 12:30 AM MST (1/5) 11:29 AM MST (1/5)
Length of Visible Light 10h 09m
Length of Day
9h 04m
Last Quarter, 43% of the Moon is Illuminated
Jan 5
Last Quarter
Jan 11
New
Jan 18
First Quarter
Jan 26
Full
Feb 3
Last Quarter

Hourly Weather History & Observations

Time (MST) Temp. Windchill Dew Point Humidity Pressure Visibility Wind Dir Wind Speed Gust Speed Precip Events Conditions
12:53 AM 19.0 °F 11.1 °F 5.0 °F 54% 30.04 in 10.0 mi NNW 5.8 mph - N/A   Clear
1:53 AM 19.0 °F 13.9 °F 5.0 °F 54% 30.06 in 10.0 mi WNW 3.5 mph - N/A   Clear
2:53 AM 18.0 °F 9.8 °F 6.1 °F 60% 30.08 in 10.0 mi NW 5.8 mph - N/A   Clear
3:53 AM 21.0 °F 16.2 °F 12.0 °F 68% 30.07 in 10.0 mi WNW 3.5 mph - N/A   Clear
4:53 AM 24.1 °F 18.2 °F 15.1 °F 69% 30.08 in 10.0 mi West 4.6 mph - N/A   Clear
5:53 AM 25.0 °F 17.1 °F 15.1 °F 66% 30.09 in 10.0 mi West 6.9 mph - N/A   Clear
6:53 AM 26.1 °F 14.5 °F 14.0 °F 60% 30.13 in 10.0 mi WNW 13.8 mph 23.0 mph N/A   Clear
7:53 AM 27.0 °F 14.7 °F 14.0 °F 58% 30.12 in 10.0 mi NW 16.1 mph 20.7 mph N/A   Clear
8:53 AM 28.0 °F 17.0 °F 14.0 °F 56% 30.15 in 10.0 mi NW 13.8 mph 23.0 mph N/A   Clear
9:53 AM 30.9 °F 22.8 °F 10.9 °F 43% 30.18 in 10.0 mi WNW 9.2 mph 21.9 mph N/A   Clear
10:53 AM 32.0 °F 24.2 °F 14.0 °F 48% 30.19 in 10.0 mi NW 9.2 mph 16.1 mph N/A   Clear
11:53 AM 32.0 °F 23.0 °F 12.9 °F 45% 30.19 in 10.0 mi North 11.5 mph 26.5 mph N/A   Clear
12:53 PM 33.1 °F 24.9 °F 12.9 °F 43% 30.18 in 10.0 mi WNW 10.4 mph 21.9 mph N/A   Clear
1:53 PM 33.1 °F 25.5 °F 12.0 °F 42% 30.18 in 10.0 mi NNW 9.2 mph 20.7 mph N/A   Clear
2:53 PM 34.0 °F 28.0 °F 10.9 °F 38% 30.20 in 10.0 mi NW 6.9 mph 16.1 mph N/A   Clear
3:53 PM 30.9 °F 22.2 °F 10.9 °F 43% 30.23 in 10.0 mi NW 10.4 mph 16.1 mph N/A   Clear
5:53 PM 25.0 °F 18.1 °F 10.9 °F 55% 30.27 in 10.0 mi Variable 5.8 mph - N/A   Clear
6:53 PM 21.9 °F 12.5 °F 10.9 °F 63% 30.29 in 10.0 mi West 8.1 mph - N/A   Clear
7:53 PM 21.0 °F 14.6 °F 12.0 °F 68% 30.30 in 10.0 mi WSW 4.6 mph - N/A   Clear
8:53 PM 21.0 °F 13.4 °F 12.0 °F 68% 30.28 in 10.0 mi SW 5.8 mph - N/A   Clear
9:53 PM 21.0 °F 12.4 °F 12.9 °F 71% 30.27 in 10.0 mi WSW 6.9 mph - N/A   Clear
10:53 PM 21.0 °F 13.4 °F 12.0 °F 68% 30.26 in 10.0 mi West 5.8 mph - N/A   Clear
11:53 PM 19.0 °F 11.1 °F 12.0 °F 74% 30.26 in 10.0 mi WSW 5.8 mph - N/A   Clear